WetterOnline ( http://www.wetteronline.de )

Wetter aktuell Bönnigheim

Aktuelles Wetter: Mühlacker (245m)

6-stündlich | Neueste Meldungen
Ortszeit Temperatur Wetter
Mo, 18.03. 19:00 4.1° C wolkig
Mo, 18.03. 13:00 8.4° C wolkig
Mo, 18.03. 7:00 3.6° C bewölkt
Mo, 18.03. 1:00 2.6° C leicht bewölkt
So, 17.03. 19:00 5.1° C wolkig
So, 17.03. 13:00 14.6° C bewölkt
So, 17.03. 7:00 -1.5° C leicht bewölkt
So, 17.03. 1:00 0.1° C wolkig
Ortszeit Temperatur Wetter
Di, 19.03. 0:00 0.6° C bewölkt
Mo, 18.03. 23:50 0.6° C bewölkt
Mo, 18.03. 23:40 0.9° C bewölkt
Mo, 18.03. 23:30 0.8° C bewölkt
Mo, 18.03. 23:20 0.8° C bewölkt
Mo, 18.03. 23:10 1.0° C wolkig
Mo, 18.03. 23:00 0.9° C wolkig
Mo, 18.03. 22:30 1.0° C wolkig
Mo, 18.03. 22:00 1.3° C bewölkt
Mo, 18.03. 21:30 1.1° C bewölkt
Mo, 18.03. 21:00 0.9° C fast wolkenlos
Ortszeit Relative Feuchte Sichtweite
Mo, 18.03. 19:00 86% 70 km
Mo, 18.03. 13:00 64% 21 km
Mo, 18.03. 7:00 78% 55 km
Mo, 18.03. 1:00 78% 70 km
So, 17.03. 19:00 87% 70 km
So, 17.03. 13:00 48% 60 km
So, 17.03. 7:00 95% 30 km
So, 17.03. 1:00 96% 11 km
Ortszeit Relative Feuchte Sichtweite
Di, 19.03. 0:00 98% 6 km
Mo, 18.03. 23:50 98% -
Mo, 18.03. 23:40 98% -
Mo, 18.03. 23:30 98% 12 km
Mo, 18.03. 23:20 98% -
Mo, 18.03. 23:10 98% -
Mo, 18.03. 23:00 98% 17 km
Mo, 18.03. 22:30 98% 21 km
Mo, 18.03. 22:00 97% 17 km
Mo, 18.03. 21:30 98% 25 km
Mo, 18.03. 21:00 96% 19 km
Ortszeit Niederschlagsmenge Niederschlagsart
Mo, 18.03. 19:00 0.6 l/m2 in 12 Std. Schnee, Regen
Mo, 18.03. 13:00 0.1 l/m2 in 6 Std. Regen
Mo, 18.03. 7:00 0.1 l/m2 in 12 Std. -
Mo, 18.03. 1:00 0.1 l/m2 in 6 Std. Regen
So, 17.03. 19:00 3 l/m2 in 12 Std. Regen
So, 17.03. 13:00 0.0 l/m2 in 6 Std. -
So, 17.03. 7:00 0.0 l/m2 in 12 Std. -
So, 17.03. 1:00 0.0 l/m2 in 6 Std. -
Ortszeit Niederschlagsmenge Niederschlagsart
Di, 19.03. 0:00 0.0 l/m2 in 1 Std. -
Mo, 18.03. 23:50 keine Meldung -
Mo, 18.03. 23:40 keine Meldung -
Mo, 18.03. 23:30 0.0 l/m2 in 1 Std. -
Mo, 18.03. 23:20 keine Meldung -
Mo, 18.03. 23:10 keine Meldung -
Mo, 18.03. 23:00 0.0 l/m2 in 1 Std. -
Mo, 18.03. 22:30 0.0 l/m2 in 1 Std. -
Mo, 18.03. 22:00 0.0 l/m2 in 1 Std. Regen
Mo, 18.03. 21:30 0.0 l/m2 in 1 Std. -
Mo, 18.03. 21:00 0.1 l/m2 in 1 Std. Regen
Ortszeit Stärke Spitze Richtung
km/h Bft. km/h Grad Sektor
Mo, 18.03. 19:00 4 1 43 110° O
Mo, 18.03. 13:00 22 4 44 230° SW
Mo, 18.03. 7:00 17 3 31 260° W
Mo, 18.03. 1:00 9 2 39 250° W
So, 17.03. 19:00 9 2 56 260° W
So, 17.03. 13:00 22 4 50 260° W
So, 17.03. 7:00 0 0 7 - -
So, 17.03. 1:00 0 0 7 - -
Ortszeit Stärke Spitze Richtung
km/h Bft. km/h Grad Sektor
Di, 19.03. 0:00 0 0 0 - -
Mo, 18.03. 23:50 0 0 - - -
Mo, 18.03. 23:40 0 0 - - -
Mo, 18.03. 23:30 0 0 0 - -
Mo, 18.03. 23:20 0 0 - - -
Mo, 18.03. 23:10 0 0 - - -
Mo, 18.03. 23:00 0 0 4 - -
Mo, 18.03. 22:30 0 0 4 - -
Mo, 18.03. 22:00 0 0 7 - -
Mo, 18.03. 21:30 4 1 7 50° NO
Mo, 18.03. 21:00 4 1 22 50° NO
Ortszeit Untergrenze Bedeckung Gattung
total tief tief mittel hoch
Mo, 18.03. 19:00 1500 m 6/8 6/8 - - -
Mo, 18.03. 13:00 930 m 5/8 5/8 - - -
Mo, 18.03. 7:00 540 m 7/8 8/8 - - -
Mo, 18.03. 1:00 1020 m 2/8 2/8 - - -
So, 17.03. 19:00 1050 m 5/8 7/8 - - -
So, 17.03. 13:00 1800 m 7/8 7/8 - - -
So, 17.03. 7:00 9000 m 3/8 0/8 - - -
So, 17.03. 1:00 8700 m 7/8 0/8 - - -
Ortszeit Bedeckungsgrad in Achtel und Wolkenuntergrenze
Di, 19.03. 0:00 3(1170m) 4(1380m) 7(2400m)
Mo, 18.03. 23:50 3(1170m) 4(1380m) 7(2400m)
Mo, 18.03. 23:40 2(1140m) 7(2400m)
Mo, 18.03. 23:30 1(1260m) 3(1800m) 7(2400m)
Mo, 18.03. 23:20 1(1260m) 3(1800m) 7(2400m)
Mo, 18.03. 23:10 2(1230m) 5(1800m) 6(2400m)
Mo, 18.03. 23:00 5(1500m) 6(1500m) 6(2100m)
Mo, 18.03. 22:30 5(1800m)
Mo, 18.03. 22:00 4(1170m) 7(1500m) 7(1800m)
Mo, 18.03. 21:30 1(1290m) 6(1500m) 7(2100m)
Mo, 18.03. 21:00 2(2100m)
Ortszeit Luftdruck NN (hPa) Tendenz (hPa in 3 Std.)
Mo, 18.03. 19:00 1023 + 1,5
Mo, 18.03. 13:00 1020 + 0,6
Mo, 18.03. 7:00 1018 + 1,6
Mo, 18.03. 1:00 1017 + 1,4
So, 17.03. 19:00 1012 + 2,6
So, 17.03. 13:00 1004 - 0,6
So, 17.03. 7:00 1006 - 1,0
So, 17.03. 1:00 1009 - 1,8
Ortszeit Luftdruck NN (hPa) Tendenz (hPa in 3 Std.)
Di, 19.03. 0:00 1026 + 1,0
Mo, 18.03. 23:50 1026 keine Meldung
Mo, 18.03. 23:40 1026 keine Meldung
Mo, 18.03. 23:30 1025 + 1,3
Mo, 18.03. 23:20 1025 keine Meldung
Mo, 18.03. 23:10 1025 keine Meldung
Mo, 18.03. 23:00 1025 + 0,9
Mo, 18.03. 22:30 1025 + 1,6
Mo, 18.03. 22:00 1025 + 1,9
Mo, 18.03. 21:30 1025 + 2,0
Mo, 18.03. 21:00 1025 + 2,0
Ortszeit Schneehöhe (cm)
Mo, 18.03. 19:00 0
Mo, 18.03. 13:00 0
Mo, 18.03. 7:00 0
Mo, 18.03. 1:00 0
So, 17.03. 19:00 0
So, 17.03. 13:00 0
So, 17.03. 7:00 0
So, 17.03. 1:00 0
Ortszeit Schneehöhe (cm)
Di, 19.03. 0:00 0
Mo, 18.03. 23:50 0
Mo, 18.03. 23:40 0
Mo, 18.03. 23:30 0
Mo, 18.03. 23:20 0
Mo, 18.03. 23:10 0
Mo, 18.03. 23:00 0
Mo, 18.03. 22:30 0
Mo, 18.03. 22:00 0
Mo, 18.03. 21:30 0
Mo, 18.03. 21:00 0
Link zu dieser Seite / Seite empfehlen

Das Wetter in ...